Weather Roundup
Issued by NWS

Home | Current Version | Previous Version | Text Only | Print | Product List | Glossary On
Versions: 1 2 3 4 5 6 7 8 9 10 11 12 13 14 15 16 17 18 19 20 21 22 23 24 25 26 27 28 29 30 31 32 33 34 35 36 37 38 39 40 41 42 43 44 45 46 47 48 49 50
000
NZUS93 KARX 040010
HRRWXR

CURRENT HOURLY OBSERVATIONS ACROSS
MUCH OF THE UPPER MISSISSIPPI VALLEY
NATIONAL WEATHER SERVICE LA CROSSE WI
700 PM CDT MON AUG 03 2015


...SOUTHEAST MINNESOTA...


CITY           SKY/WX    TMP DP  RH WIND       PRES   REMARKS
ROCHESTER      SUNNY     72  53  51 NW9       29.93S
ROCHESTER/MAYO FAIR      75  49  39 W9        29.91S
WINONA         MOSUNNY   77  52  41 NW10      29.89S
AUSTIN         SUNNY     75  50  41 NW7       29.92S
ALBERT LEA     SUNNY     75  52  43 NW8       29.93S
DODGE CENTER   MOSUNNY   73  50  43 W8        29.92F
PRESTON        SUNNY     72  52  49 NW8       29.93S
OWATONNA       SUNNY     75  52  43 W8        29.92F
FARIBAULT      SUNNY     73  54  49 W9        29.92S
$$

...ELSEWHERE IN MINNESOTA...


CITY           SKY/WX    TMP DP  RH WIND       PRES   REMARKS
MINNEAPOLIS    MOSUNNY   76  50  40 W12       29.89S
INTNL FALLS    CLOUDY    63  54  72 NW6       29.87S
DULUTH         PTSUNNY   68  53  58 NW10G20   29.86S
RED WING       PTSUNNY   79  46  31 NW7       29.87S
REDWOOD FALLS  SUNNY     78  50  37 NW9       29.92F
MANKATO        SUNNY     75  50  41 NW8       29.92S
WORTHINGTON    MOSUNNY   75  55  50 NW8       29.96S
FAIRMONT       SUNNY     77  52  41 NW9       29.93F
$$

...SOUTHWEST WISCONSIN...


CITY           SKY/WX    TMP DP  RH WIND       PRES   REMARKS
LA CROSSE      SUNNY     78  52  40 NW9       29.87S
PRAIRIE DU CHI SUNNY     78  47  32 W10       29.88S
BOSCOBEL       SUNNY     79  54  41 W8        29.88S
LONE ROCK      MOSUNNY   78  50  37 NW8       29.88R
PLATTEVILLE    SUNNY     76  52  43 W8        29.89F
FORT MC COY    MOSUNNY   76  46  33 W7        29.89R
CAMP DOUGLAS   MOSUNNY   75  52  43 NW8       29.87R
VIROQUA        FAIR      73  51  45 NW7       29.90S
WIS DELLS      MOSUNNY   76  46  33 NW8       29.87S
$$

...ELSEWHERE IN WISCONSIN...


CITY           SKY/WX    TMP DP  RH WIND       PRES   REMARKS
MILWAUKEE      MOSUNNY   79  47  32 NW15      29.84S
MADISON        MOSUNNY   76  51  41 NW9       29.86S
GREEN BAY      CLOUDY    71  56  58 NW7       29.82R
EAU CLAIRE     PTSUNNY   75  50  41 NW10      29.87S
BLACK RVR FLS  FAIR      76  45  32 NW8       29.87S
MEDFORD        CLOUDY    67  54  63 W7        29.89R
WAUSAU         CLOUDY    70  53  54 NW10      29.85R
WIS RAPIDS     PTSUNNY   76  49  38 NW10      29.87R
MARSHFIELD     CLOUDY    71  52  50 N10       29.88R
RICE LAKE      MOSUNNY   71  51  49 W6        29.89S
$$

...NORTHEAST IOWA...


CITY           SKY/WX    TMP DP  RH WIND       PRES   REMARKS
DECORAH        SUNNY     75  54  46 VRB7G14   29.90F
MASON CITY     SUNNY     77  56  48 NW12      29.94F
CHARLES CITY   SUNNY     75  55  50 NW9       29.93S
OELWEIN        SUNNY     75  59  57 NW5       29.92S
$$

...ELSEWHERE IN IOWA...


CITY           SKY/WX    TMP DP  RH WIND       PRES   REMARKS
DES MOINES     MOSUNNY   80  54  40 NW8       29.93S
IOWA CITY      SUNNY     78  54  43 NW9       29.92S
FORT DODGE     SUNNY     77  57  50 W3        29.96S
$$

...NORTHERN ILLINOIS...


CITY           SKY/WX    TMP DP  RH WIND       PRES   REMARKS
CHICAGO-OHARE  MOSUNNY   78  50  37 W14G21    29.86R
CHICAGO-MIDWAY MOSUNNY   81  48  31 W14G21    29.86R
MOLINE         SUNNY     79  53  40 W10       29.88F
ROCKFORD       SUNNY     79  50  36 NW10      29.89R
PEORIA         SUNNY     81  58  45 NW5       29.89S
$$

NOTE: "FAIR" INDICATES FEW OR NO CLOUDS BELOW 12,000 FEET WITH NO
SIGNIFICANT WEATHER AND/OR OBSTRUCTIONS TO VISIBILITY. WIND
SPEEDS ARE IN MILES-PER-HOUR.



USA.gov is the U.S. government's official web portal to all federal, state and local government web resources and services.